| time (UTC) | temp F | wind direction | speed knots | gust knots | rain 1hr in | rain 24hr in | rain mn in | humidity % | barometer mb |
| 20260510163704 | 57 | 265 | 1.7 | 4.3 | 0.00 | 0.00 | 0.00 | 82 | 1018.3 |
| 20260510163204 | 57 | 164 | 2.6 | 5.2 | 0.00 | 0.00 | 0.00 | 82 | 1018.0 |
| 20260510160705 | 56 | 293 | 1.7 | 2.6 | 0.00 | 0.00 | 0.00 | 83 | 1018.1 |
| 20260510160204 | 56 | 298 | 1.7 | 6.1 | 0.00 | 0.00 | 0.00 | 83 | 1018.0 |
| 20260510153704 | 56 | 300 | 0.9 | 2.6 | 0.00 | 0.00 | 0.00 | 83 | 1018.1 |
| 20260510153204 | 56 | 300 | 0.9 | 2.6 | 0.00 | 0.00 | 0.00 | 84 | 1017.8 |
| 20260510150704 | 55 | 300 | 0.9 | 2.6 | 0.00 | 0.00 | 0.00 | 85 | 1017.4 |
| 20260510150203 | 54 | 238 | 0.0 | 2.6 | 0.00 | 0.00 | 0.00 | 86 | 1017.5 |
| 20260510143703 | 54 | 182 | 0.9 | 2.6 | 0.00 | 0.00 | 0.00 | 87 | 1017.9 |
| 20260510143204 | 54 | 218 | 1.7 | 5.2 | 0.00 | 0.00 | 0.00 | 87 | 1018.0 |
| 20260510140204 | 53 | 138 | 0.9 | 5.2 | 0.00 | 0.00 | 0.00 | 87 | 1016.8 |
| 20260510133704 | 53 | 87 | 1.7 | 2.6 | 0.00 | 0.00 | 0.00 | 88 | 1017.2 |
| 20260510133205 | 53 | 87 | 0.9 | 2.6 | 0.00 | 0.00 | 0.00 | 88 | 1017.3 |
| 20260510130704 | 52 | 109 | 0.9 | 2.6 | 0.00 | 0.00 | 0.00 | 89 | 1017.7 |
| 20260510130204 | 51 | 108 | 0.0 | 0.0 | 0.00 | 0.00 | 0.00 | 89 | 1017.5 |
| 20260510123704 | 52 | 108 | 0.0 | 0.0 | 0.00 | 0.00 | 0.00 | 88 | 1017.5 |
| 20260510123205 | 52 | 108 | 0.0 | 1.7 | 0.00 | 0.00 | 0.00 | 88 | 1017.4 |
| 20260510120203 | 52 | 108 | 0.0 | 1.7 | 0.00 | 0.00 | 0.00 | 87 | 1017.2 |
| 20260510110704 | 53 | 72 | 0.0 | 0.9 | 0.00 | 0.00 | 0.00 | 86 | 1017.0 |
| 20260510110204 | 53 | 72 | 0.0 | 1.7 | 0.00 | 0.00 | 0.00 | 85 | 1017.0 |
| 20260510103704 | 54 | 72 | 0.0 | 0.9 | 0.00 | 0.00 | 0.00 | 84 | 1016.8 |
| 20260510103204 | 54 | 72 | 0.0 | 1.7 | 0.00 | 0.00 | 0.00 | 84 | 1016.8 |
| 20260510100703 | 55 | 72 | 0.0 | 0.0 | 0.00 | 0.00 | 0.00 | 83 | 1016.6 |
| 20260510093704 | 55 | 72 | 0.0 | 0.0 | 0.00 | 0.00 | 0.00 | 85 | 1016.2 |
| 20260510093205 | 55 | 72 | 0.0 | 0.0 | 0.00 | 0.00 | 0.00 | 85 | 1016.1 |
| 20260510090704 | 55 | 72 | 0.0 | 0.0 | 0.00 | 0.00 | 0.00 | 83 | 1015.9 |
| 20260510083704 | 55 | 72 | 0.0 | 0.0 | 0.00 | 0.00 | 0.00 | 84 | 1015.8 |
| 20260510083203 | 55 | 72 | 0.0 | 1.7 | 0.00 | 0.00 | 0.00 | 83 | 1015.7 |
| 20260510080703 | 56 | 72 | 0.9 | 2.6 | 0.00 | 0.00 | 0.00 | 83 | 1015.7 |
| 20260510080204 | 56 | 73 | 0.0 | 1.7 | 0.00 | 0.00 | 0.00 | 83 | 1015.8 |
| 20260510073705 | 56 | 73 | 0.0 | 0.0 | 0.00 | 0.00 | 0.00 | 82 | 1015.9 |
| 20260510073205 | 57 | 73 | 0.0 | 0.0 | 0.00 | 0.00 | 0.00 | 82 | 1015.9 |
| 20260510070204 | 57 | 73 | 0.0 | 0.0 | 0.00 | 0.00 | 0.00 | 80 | 1015.9 |
| 20260510063204 | 58 | 24 | 0.0 | 0.9 | 0.00 | 0.00 | 0.00 | 79 | 1016.0 |
| 20260510060704 | 61 | 24 | 0.0 | 0.9 | 0.00 | 0.00 | 0.00 | 75 | 1016.0 |
| 20260510060204 | 61 | 24 | 0.0 | 1.7 | 0.00 | 0.00 | 0.00 | 75 | 1016.0 |
| 20260510053704 | 61 | 24 | 0.0 | 0.9 | 0.00 | 0.00 | 0.00 | 74 | 1015.9 |
| 20260510053204 | 61 | 24 | 0.0 | 1.7 | 0.00 | 0.00 | 0.00 | 73 | 1015.8 |
| 20260510043704 | 63 | 10 | 0.0 | 0.0 | 0.00 | 0.00 | 0.00 | 72 | 1015.8 |
| 20260510043204 | 63 | 11 | 0.0 | 0.9 | 0.00 | 0.00 | 0.00 | 71 | 1015.8 |
| 20260510040704 | 63 | 11 | 0.0 | 0.9 | 0.00 | 0.00 | 0.00 | 69 | 1015.6 |
| 20260510040203 | 64 | 11 | 0.0 | 1.7 | 0.00 | 0.00 | 0.00 | 68 | 1015.6 |
| 20260510033705 | 65 | 11 | 0.0 | 0.0 | 0.00 | 0.00 | 0.00 | 65 | 1015.5 |
| 20260510030204 | 67 | 40 | 0.0 | 2.6 | 0.00 | 0.00 | 0.00 | 58 | 1015.8 |
| 20260510023704 | 69 | 333 | 0.9 | 2.6 | 0.00 | 0.00 | 0.00 | 54 | 1016.0 |
| 20260510023205 | 69 | 283 | 0.9 | 2.6 | 0.00 | 0.00 | 0.00 | 54 | 1016.0 |
| 20260510020705 | 70 | 0 | 0.9 | 2.6 | 0.00 | 0.00 | 0.00 | 53 | 1016.2 |
| 20260510020204 | 71 | 15 | 1.7 | 2.6 | 0.00 | 0.00 | 0.00 | 52 | 1016.2 |
| 20260510013704 | 70 | 8 | 1.7 | 4.3 | 0.00 | 0.00 | 0.00 | 53 | 1016.7 |
| 20260510013205 | 70 | 20 | 0.0 | 4.3 | 0.00 | 0.00 | 0.00 | 52 | 1016.7 |
| 20260510010704 | 70 | 344 | 0.9 | 1.7 | 0.00 | 0.00 | 0.00 | 52 | 1016.8 |
| 20260510010204 | 70 | 340 | 1.7 | 5.2 | 0.00 | 0.00 | 0.00 | 52 | 1016.8 |
| 20260510003704 | 70 | 342 | 1.7 | 5.2 | 0.00 | 0.00 | 0.00 | 52 | 1017.1 |
| 20260510003203 | 70 | 322 | 0.9 | 7.0 | 0.00 | 0.00 | 0.00 | 51 | 1017.2 |
| 20260510000703 | 70 | 338 | 2.6 | 7.8 | 0.00 | 0.00 | 0.00 | 51 | 1017.5 |
| 20260509233703 | 71 | 9 | 2.6 | 7.0 | 0.00 | 0.00 | 0.00 | 51 | 1017.7 |
| 20260509233205 | 71 | 0 | 1.7 | 7.8 | 0.00 | 0.00 | 0.00 | 50 | 1017.7 |
| 20260509230704 | 72 | 267 | 1.7 | 4.3 | 0.00 | 0.00 | 0.00 | 49 | 1018.0 |
| 20260509230204 | 71 | 201 | 0.9 | 8.7 | 0.00 | 0.00 | 0.00 | 49 | 1018.3 |
| 20260509223704 | 70 | 287 | 1.7 | 10.4 | 0.00 | 0.00 | 0.00 | 52 | 1018.5 |
| 20260509223204 | 69 | 293 | 2.6 | 8.7 | 0.00 | 0.00 | 0.00 | 53 | 1018.6 |
| 20260509220704 | 71 | 320 | 2.6 | 7.8 | 0.00 | 0.00 | 0.00 | 52 | 1018.6 |
| 20260509220204 | 71 | 274 | 1.7 | 7.0 | 0.00 | 0.00 | 0.00 | 52 | 1018.7 |
| 20260509213704 | 70 | 277 | 2.6 | 7.8 | 0.00 | 0.00 | 0.00 | 52 | 1018.8 |
| 20260509213205 | 70 | 292 | 2.6 | 7.0 | 0.00 | 0.00 | 0.00 | 51 | 1018.8 |
| 20260509210203 | 70 | 354 | 2.6 | 6.1 | 0.00 | 0.00 | 0.00 | 53 | 1019.0 |
| 20260509203703 | 70 | 304 | 2.6 | 7.0 | 0.00 | 0.00 | 0.00 | 54 | 1019.2 |
| 20260509203203 | 69 | 288 | 1.7 | 7.0 | 0.00 | 0.00 | 0.00 | 54 | 1019.2 |
| 20260509200705 | 68 | 336 | 1.7 | 4.3 | 0.00 | 0.00 | 0.00 | 56 | 1019.7 |
| 20260509200204 | 67 | 292 | 4.3 | 8.7 | 0.00 | 0.00 | 0.00 | 55 | 1019.7 |
| 20260509193704 | 68 | 333 | 1.7 | 7.0 | 0.00 | 0.00 | 0.00 | 56 | 1020.1 |
| 20260509193204 | 67 | 286 | 2.6 | 7.8 | 0.00 | 0.00 | 0.00 | 58 | 1020.2 |
| 20260509190704 | 66 | 29 | 2.6 | 6.1 | 0.00 | 0.00 | 0.00 | 59 | 1020.4 |
| 20260509183704 | 66 | 303 | 1.7 | 2.6 | 0.00 | 0.00 | 0.00 | 61 | 1020.6 |
| 20260509183204 | 65 | 19 | 1.7 | 5.2 | 0.00 | 0.00 | 0.00 | 62 | 1020.6 |
| 20260509180704 | 64 | 4 | 1.7 | 6.1 | 0.00 | 0.00 | 0.00 | 64 | 1020.9 |
| 20260509180205 | 64 | 25 | 0.9 | 4.3 | 0.00 | 0.00 | 0.00 | 64 | 1020.8 |
| 20260509173704 | 62 | 322 | 2.6 | 5.2 | 0.00 | 0.00 | 0.00 | 68 | 1021.0 |
| 20260509173203 | 62 | 293 | 0.9 | 5.2 | 0.00 | 0.00 | 0.00 | 68 | 1021.1 |
| 20260509170704 | 60 | 303 | 1.7 | 2.6 | 0.00 | 0.00 | 0.00 | 72 | 1021.2 |
| 20260509170204 | 59 | 308 | 1.7 | 2.6 | 0.00 | 0.00 | 0.00 | 73 | 1021.2 |